Regional Weather Roundup
Issued by NWS

Home | Current Version | Previous Version | Text Only | Print | Product List | Glossary On
Versions: 1 2 3 4 5 6 7 8 9 10 11 12 13 14 15 16 17 18 19 20 21 22 23 24 25 26 27 28 29 30 31 32 33 34 35 36 37 38 39 40 41 42 43 44 45 46 47 48 49 50
000
ASUS43 KFSD 291402
RWRSD

WEATHER ROUNDUP FOR SOUTH DAKOTA
NATIONAL WEATHER SERVICE SIOUX FALLS SD
900 AM CDT THU JUN 29 2017

NOTE: "FAIR" INDICATES FEW OR NO CLOUDS BELOW 12,000 FEET WITH NO
SIGNIFICANT WEATHER AND/OR OBSTRUCTIONS TO VISIBILITY.


SDZ001>005-009-010-012>017-291500-
NORTHWEST AND NORTH CENTRAL SOUTH DAKOTA

CITY           SKY/WX    TMP DP  RH WIND       PRES   REMARKS
BUFFALO          N/A     57  55  93 SW8       29.81R
FAITH            N/A     59  57  93 W3        29.87R
MOBRIDGE       CLOUDY    65  52  62 NW5       29.81R
$$

SDZ012>016-024>037-041>051-057-063-072>074-291500-
SOUTHWEST AND SOUTH CENTRAL SOUTH DAKOTA

CITY           SKY/WX    TMP DP  RH WIND       PRES   REMARKS
RAPID CTY ARPT CLOUDY    60  54  80 NW8       29.88R
PIERRE         CLOUDY    62  53  72 N5        29.81R
CUSTER         CLOUDY    57  44  62 W7        29.96S
ELLSWORTH AFB  CLOUDY    59  55  85 NW12      29.88
PHILIP         CLOUDY    66  49  54 N8        29.83R
PINE RIDGE     SUNNY     63  54  72 NW9       29.89R
SPEARFISH      LGT RAIN  54  54 100 W14G22    29.94R
WINNER         FAIR      72  47  40 NE6       29.79R
$$

SDZ004>011-016>023-039-040-291500-
NORTHEAST SOUTH DAKOTA

CITY           SKY/WX    TMP DP  RH WIND       PRES   REMARKS
ABERDEEN       CLOUDY    62  54  74 CALM      29.80R
WATERTOWN      CLOUDY    62  59  90 CALM      29.80R
BROOKINGS      CLOUDY    63  59  87 SW3       29.82R
SISSETON         N/A     65  61  87 N9        29.78S
$$

SDZ017-020-022-023-036>040-048>070-291500-
SOUTHEAST SOUTH DAKOTA

CITY           SKY/WX    TMP DP  RH WIND       PRES   REMARKS
SIOUX FALLS    CLOUDY    67  63  87 CALM      29.79R
HURON          CLOUDY    63  54  72 W5        29.82R
CHAMBERLAIN    CLOUDY    68  56  66 NE7       29.79S
MITCHELL       CLOUDY    65  58  78 N7        29.80R
YANKTON        CLOUDY    68  62  81 E8        29.76R
$$

ABBREVIATIONS USED IN REMARKS
   TC - TEMPERATURE IN CELSIUS
  WCI - WIND CHILL INDEX
   HX - HEAT INDEX
  VSB - VISIBILITY





USA.gov is the U.S. government's official web portal to all federal, state and local government web resources and services.